Regional Weather Roundup
Issued by NWS Albany, NY

Home | Current Version | Previous Version | Graphics & Text | Print | Product List | Glossary On
Versions: 1 2 3 4 5 6 7 8 9 10 11 12 13 14 15 16 17 18 19 20 21 22 23 24 25 26 27 28 29 30 31 32 33 34 35 36 37 38 39 40 41 42 43 44 45 46 47 48
000
ASUS41 KALY 251410
RWRALY

NEW YORK STATE HOURLY WEATHER ROUNDUP
NATIONAL WEATHER SERVICE ALBANY NY
900 AM EST SUN JAN 25 2015

NOTE: "FAIR" INDICATES FEW OR NO CLOUDS BELOW 12,000 FEET WITH NO
SIGNIFICANT WEATHER AND/OR NO OBSTRUCTIONS TO VISIBILITY.

NYZ032-033-038>043-046>054-057>066-NYZ062>081-251500-
EAST


CITY           SKY/WX    TMP DP  RH WIND       PRES   REMARKS
ALBANY         FLURRIES  30  17  58 NW26G35   29.68R WCI  16
GLENS FALLS    MOSUNNY   26   9  48 NW20G26   29.65R WCI  12
POUGHKEEPSIE   MOSUNNY   37  20  50 W17G28    29.65R WCI  27
NEWBURGH       PTSUNNY   36  25  64 NW23G35   29.67R WCI  24
MONTGOMERY     MOSUNNY   36  18  48 W16G25    29.66R WCI  26
WHITE PLAINS   PTSUNNY   36  26  67 VRB7      29.66R WCI  30
ISLIP          MOSUNNY   37  28  70 W18       29.68R WCI  27
NEW YORK CITY  PTSUNNY   37  27  67 SW12      29.71R WCI  29
CENTRAL PARK   PTSUNNY   37  26  64 W7        29.73R WCI  32
$$

NYZ005>009-017-018-044>046-055-056-251500-
CENTRAL


CITY           SKY/WX    TMP DP  RH WIND       PRES   REMARKS
FULTON         LGT SNOW  16   7  67 N14G21    29.83R WCI   2
SYRACUSE       FLURRIES  16  10  77 NW12      29.81R WCI   3
ROME           MOSUNNY   18   9  68 W15       29.78R WCI   4
ELMIRA         SUNNY     27  11  51 NW6G17    29.77R WCI  20
BINGHAMTON     FLURRIES  22  13  68 NW12G23   29.69R WCI  10
MONTICELLO     PTSUNNY   28  16  59 W22G35    29.65R WCI  15
$$

NYZ026>034-041>043-251500-
NORTH


CITY           SKY/WX    TMP DP  RH WIND       PRES   REMARKS
WATERTOWN      SUNNY     11   0  61 NW7       29.85R WCI   0
FORT DRUM      NOT AVBL
MASSENA        SUNNY      6  -5  60 W15       29.83R WCI -12
SARANAC LAKE   CLOUDY     3  -2  79 VRB6      29.62R WCI  -8
PLATTSBURGH    SUNNY     15   3  59 NW8       29.71R WCI   4
$$

NYZ001>004-010>016-019>021-251500-
WEST


CITY           SKY/WX    TMP DP  RH WIND       PRES   REMARKS
NIAGARA FALLS  FLURRIES  16  10  77 N17       29.87R WCI   0
BUFFALO        FLURRIES  16  10  77 NW12      29.86R WCI   3
DUNKIRK        CLOUDY    20  14  77 N8        29.87R WCI  10
JAMESTOWN      CLOUDY    19  18  93 N12       29.75R WCI   7
WELLSVILLE     CLOUDY    21  14  74 NW13G18   29.73R WCI   9
ROCHESTER      PTSUNNY   19  12  74 NW10      29.85R WCI   7
PENN YAN       MOSUNNY   20  11  68 NW10      29.79R WCI   9
$$

             KEY
       WCI = WIND CHILL INDEX
       VSB = VISIBILITY
       HX  = HEAT INDEX
$$


USA.gov is the U.S. government's official web portal to all federal, state and local government web resources and services.